(153725) = 2001 UP118

Discovered at Socorro on 2001-10-22 by LINEAR.

Orbit

Orbit type: Main Belt

Note: WebGL enabled browser required.

epoch2024-03-31.0
epoch JD2460400.5
perihelion date2022-02-05.38199
perihelion JD2459615.88199
argument of perihelion (°)309.01185
ascending node (°)103.58584
inclination (°)3.07437
eccentricity0.0712092
perihelion distance (AU)2.3578939
Tisserand w.r.t. Jupiter3.4
ΔV w.r.t. Earth (km/sec)9.6
semimajor axis (AU)2.5386705
mean anomaly (°)191.18447
mean daily motion (°/day)0.24366570
aphelion distance (AU)2.719
period (years)4.04
P-vector [x]0.60632094
P-vector [y]0.74517418
P-vector [z]0.27765150
Q-vector [x]-0.79350944
Q-vector [y]0.54405205
Q-vector [z]0.27267222
absolute magnitude16.46
phase slope0.15
uncertainty0
referenceMPEC 2024-E179
observations used674
oppositions14
arc length (days)9302
first opposition used1997
last opposition used2023
residual rms (arc-secs)0.69
perturbers coarse indicatorM-v
perturbers precise indicator003Ek
first observation date used1997-11-30.0
last observation date used2023-05-20.0
computer nameMPCLINUX
JD of orbit computation2456670.801066
perihelion JD uncertainty (days)6.5833E-04
argument of perihelion uncertainty (°)2.1085E-04
ascending node uncertainty (°)1.4522E-04
inclination uncertainty (°)3.8080E-06
eccentricity uncertainty 2.8548E-07
perihelion distance uncertainty (AU)7.3446E-07
Minimum Orbit Intersection Distances (in AU)
for orbit epoch: 2460400.5, reference: E2024-E23
Mercury2.04092
Venus1.63557
Earth1.37057
Mars0.81632
Jupiter2.51008
Saturn6.63591
Uranus15.8237
Neptune27.4501

Observations

694 total observations over interval: 1997 11 30.35738 – 2023 05 20.156025
These data are available for download (format description).

Date (UT) J2000 RA J2000 Dec Magn Location Ref
1997 11 30.35738 03 38 11.89 +15 48 15.9 19.5 V 691 – Steward Observatory, Kitt Peak-Spacewatch MPS 138615
1997 11 30.37940 03 38 10.61 +15 48 13.5 19.7 V 691 – Steward Observatory, Kitt Peak-Spacewatch MPS 138615
1997 11 30.40133 03 38 09.34 +15 48 11.4 19.6 V 691 – Steward Observatory, Kitt Peak-Spacewatch MPS 138615
2001 10 22.30187 03 42 19.35 +15 15 10.6 19.6   704 – Lincoln Laboratory ETS, New Mexico MPS 41195
2001 10 22.31935 03 42 18.63 +15 15 08.5 19.5   704 – Lincoln Laboratory ETS, New Mexico MPS 41195
2001 10 22.33574 03 42 17.95 +15 15 06.5 19.7   704 – Lincoln Laboratory ETS, New Mexico MPS 41195
2001 10 22.36885 03 42 16.63 +15 15 01.9 20.0   704 – Lincoln Laboratory ETS, New Mexico MPS 41195
2001 10 23.43582 03 41 34.01 +15 12 26.7 19.8   704 – Lincoln Laboratory ETS, New Mexico MPS 41195
2001 10 23.45230 03 41 33.32 +15 12 24.5 19.9   704 – Lincoln Laboratory ETS, New Mexico MPS 41195
2001 10 23.46878 03 41 32.64 +15 12 20.9 19.6   704 – Lincoln Laboratory ETS, New Mexico MPS 41195
2001 10 24.33756 03 40 57.05 +15 10 11.5 19.2   704 – Lincoln Laboratory ETS, New Mexico MPS 44553
2001 10 24.35395 03 40 56.34 +15 10 10.0 19.9   704 – Lincoln Laboratory ETS, New Mexico MPS 44553
2001 10 24.37035 03 40 55.64 +15 10 08.2 19.9   704 – Lincoln Laboratory ETS, New Mexico MPS 44553
2001 10 24.38673 03 40 54.92 +15 10 05.5 19.9   704 – Lincoln Laboratory ETS, New Mexico MPS 44553
2001 10 24.40313 03 40 54.19 +15 10 02.7 19.6   704 – Lincoln Laboratory ETS, New Mexico MPS 44553
2001 11 15.45375 03 21 14.66 +14 09 36.7 19.8   644 – Palomar Mountain/NEAT MPS 44553
2001 11 15.47442 03 21 13.42 +14 09 33.4 19.8   644 – Palomar Mountain/NEAT MPS 44553
2001 11 15.49522 03 21 12.14 +14 09 29.6 19.8   644 – Palomar Mountain/NEAT MPS 44553
2001 11 17.31588 03 19 24.94 +14 04 44.7 19.1   704 – Lincoln Laboratory ETS, New Mexico MPS 44553
2001 11 17.33133 03 19 24.01 +14 04 42.2 19.2   704 – Lincoln Laboratory ETS, New Mexico MPS 44553
2001 11 17.34612 03 19 23.08 +14 04 40.2 19.4   704 – Lincoln Laboratory ETS, New Mexico MPS 44553
2001 11 21.22704 03 15 37.83 +13 55 04.9 19.3   704 – Lincoln Laboratory ETS, New Mexico MPS 49594
2001 11 21.24170 03 15 36.96 +13 55 02.4 19.2   704 – Lincoln Laboratory ETS, New Mexico MPS 49594
2001 11 21.25636 03 15 36.09 +13 55 00.5 19.7   704 – Lincoln Laboratory ETS, New Mexico MPS 49594
2001 11 21.27103 03 15 35.23 +13 54 58.2 19.4   704 – Lincoln Laboratory ETS, New Mexico MPS 49594
2001 11 21.28570 03 15 34.35 +13 54 56.4 19.6   704 – Lincoln Laboratory ETS, New Mexico MPS 49594
2001 12 10.13307 03 00 36.79 +13 27 34.9 20.3 V 691 – Steward Observatory, Kitt Peak-Spacewatch MPS 44553
2001 12 10.15463 03 00 36.00 +13 27 34.6 20.3 V 691 – Steward Observatory, Kitt Peak-Spacewatch MPS 44553
2001 12 10.18713 03 00 34.79 +13 27 33.9 20.3 V 691 – Steward Observatory, Kitt Peak-Spacewatch MPS 44553
2001 12 11.23679 02 59 59.07 +13 27 15.9 20.4   704 – Lincoln Laboratory ETS, New Mexico MPS 44553
2001 12 11.25245 02 59 58.50 +13 27 14.0 20.9   704 – Lincoln Laboratory ETS, New Mexico MPS 44553
2001 12 11.26887 02 59 57.87 +13 27 14.6 20.4   704 – Lincoln Laboratory ETS, New Mexico MPS 44553
2001 12 11.28459 02 59 57.47 +13 27 14.0 20.4   704 – Lincoln Laboratory ETS, New Mexico MPS 44553
2001 12 14.14766 02 58 30.64 +13 27 07.4 19.7   704 – Lincoln Laboratory ETS, New Mexico MPS 46651
2001 12 14.16286 02 58 30.21 +13 27 06.8 20.2   704 – Lincoln Laboratory ETS, New Mexico MPS 46651
2001 12 14.17812 02 58 29.74 +13 27 06.7 20.0   704 – Lincoln Laboratory ETS, New Mexico MPS 46651
2001 12 14.19335 02 58 29.35 +13 27 07.2 19.7   704 – Lincoln Laboratory ETS, New Mexico MPS 46651
2001 12 14.20845 02 58 28.86 +13 27 06.6 20.5   704 – Lincoln Laboratory ETS, New Mexico MPS 46651
2001 12 17.14402 02 57 15.04 +13 28 08.1 20.0   704 – Lincoln Laboratory ETS, New Mexico MPS 44553
2001 12 17.15918 02 57 14.66 +13 28 09.2 20.5   704 – Lincoln Laboratory ETS, New Mexico MPS 44553
2001 12 17.17436 02 57 14.30 +13 28 11.6 20.5   704 – Lincoln Laboratory ETS, New Mexico MPS 44553
2001 12 17.20474 02 57 13.52 +13 28 10.5 20.0   704 – Lincoln Laboratory ETS, New Mexico MPS 44553
2003 03 09.32836 12 10 03.97 +03 59 31.7 20.4   704 – Lincoln Laboratory ETS, New Mexico MPS 78144
2003 03 09.35529 12 10 02.72 +03 59 41.4 20.6   704 – Lincoln Laboratory ETS, New Mexico MPS 78144
2003 03 09.36871 12 10 01.99 +03 59 47.0 19.8   704 – Lincoln Laboratory ETS, New Mexico MPS 78144
2003 03 26.20909 11 55 30.57 +05 41 33.1 19.5   644 – Palomar Mountain/NEAT MPS 78144
2003 03 26.23038 11 55 29.49 +05 41 40.8 19.9   644 – Palomar Mountain/NEAT MPS 78144
2003 03 26.25156 11 55 28.31 +05 41 47.6 19.7   644 – Palomar Mountain/NEAT MPS 78144
2003 03 26.25675 11 55 28.02 +05 41 49.6 19.7   644 – Palomar Mountain/NEAT MPS 78144
2003 03 26.32267 11 55 24.50 +05 42 11.7 19.7   644 – Palomar Mountain/NEAT MPS 78144
2003 03 26.38535 11 55 21.15 +05 42 32.4 20.0   644 – Palomar Mountain/NEAT MPS 78144
2003 04 01.243560 11 50 26.798 +06 13 01.63 20.31 V 645 – Apache Point-Sloan Digital Sky Survey MPS 136930
2003 04 01.247032 11 50 26.621 +06 13 02.59 21.19   645 – Apache Point-Sloan Digital Sky Survey MPS 136930
2005 10 27.30690 03 09 47.24 +12 56 01.4 19.6 V 691 – Steward Observatory, Kitt Peak-Spacewatch MPS 145929
2005 10 27.32424 03 09 46.30 +12 55 58.0 19.5 V 691 – Steward Observatory, Kitt Peak-Spacewatch MPS 145929
2005 10 27.34158 03 09 45.36 +12 55 54.5 19.5 V 691 – Steward Observatory, Kitt Peak-Spacewatch MPS 145929
2005 10 28.24450 03 08 58.27 +12 52 50.1 18.2 V 703 – Catalina Sky Survey MPS 145929
2005 10 28.24982 03 08 58.02 +12 52 49.0 18.8 V 703 – Catalina Sky Survey MPS 145929
2005 10 28.25514 03 08 57.62 +12 52 48.1 18.7 V 703 – Catalina Sky Survey MPS 145929
2005 10 28.26052 03 08 57.44 +12 52 48.0 18.7 V 703 – Catalina Sky Survey MPS 145929
2005 10 31.28839 03 06 13.71 +12 42 25.8 19.4   704 – Lincoln Laboratory ETS, New Mexico MPS 147331
2005 10 31.30029 03 06 12.98 +12 42 24.2 19.5   704 – Lincoln Laboratory ETS, New Mexico MPS 147331
2005 10 31.32412 03 06 11.58 +12 42 18.5 19.8   704 – Lincoln Laboratory ETS, New Mexico MPS 147331
2005 10 31.33605 03 06 10.93 +12 42 16.0 19.5   704 – Lincoln Laboratory ETS, New Mexico MPS 147331
2005 11 03.27494 03 03 26.21 +12 32 13.1 19.4   704 – Lincoln Laboratory ETS, New Mexico MPS 149321
2005 11 03.28716 03 03 25.49 +12 32 11.8 20.2   704 – Lincoln Laboratory ETS, New Mexico MPS 149321
2005 11 03.29950 03 03 24.79 +12 32 08.1 19.6   704 – Lincoln Laboratory ETS, New Mexico MPS 149322
2005 11 03.31225 03 03 23.94 +12 32 05.3 19.8   704 – Lincoln Laboratory ETS, New Mexico MPS 149322
2005 11 05.22515 03 01 34.81 +12 25 35.7 19.4 V 691 – Steward Observatory, Kitt Peak-Spacewatch MPS 149322
2005 11 05.25018 03 01 33.31 +12 25 30.8 19.4 V 691 – Steward Observatory, Kitt Peak-Spacewatch MPS 149322
2005 11 05.26514 03 01 32.34 +12 25 27.5 20.5 R 683 – Goodricke-Pigott Observatory, Tucson MPS 149322
2005 11 05.27517 03 01 31.81 +12 25 26.0 19.3 V 691 – Steward Observatory, Kitt Peak-Spacewatch MPS 149322
2005 11 05.27680 03 01 31.70 +12 25 25.8 19.7   704 – Lincoln Laboratory ETS, New Mexico MPS 149322
2005 11 05.27879 03 01 31.57 +12 25 24.2 20.7 R 683 – Goodricke-Pigott Observatory, Tucson MPS 149322
2005 11 05.29249 03 01 30.66 +12 25 21.4 20.3 R 683 – Goodricke-Pigott Observatory, Tucson MPS 149322
2005 11 05.30169 03 01 30.17 +12 25 20.8 19.4   704 – Lincoln Laboratory ETS, New Mexico MPS 149322
2005 11 05.31491 03 01 29.44 +12 25 18.4 19.8   704 – Lincoln Laboratory ETS, New Mexico MPS 149322
2005 11 06.26174 03 00 35.03 +12 22 06.2 19.1 R 683 – Goodricke-Pigott Observatory, Tucson MPS 149322
2005 11 06.27539 03 00 34.10 +12 22 04.5 19.7 R 683 – Goodricke-Pigott Observatory, Tucson MPS 149322
2005 11 06.28909 03 00 33.39 +12 22 01.0 19.8 R 683 – Goodricke-Pigott Observatory, Tucson MPS 149322
2005 11 10.28701 02 56 41.89 +12 08 58.0 18.9 V 703 – Catalina Sky Survey MPS 149322
2005 11 10.29347 02 56 41.64 +12 08 57.9 18.9 V 703 – Catalina Sky Survey MPS 149322
2005 11 10.29990 02 56 41.17 +12 08 56.5 19.1 V 703 – Catalina Sky Survey MPS 149322
